Location: Arboyeti
(42.1122°N, 44.6017°E)
Time: 04:21:29
(UTC+00:00)

Cosmos 1833 Rocket - Pass Details

Date: 19 April 2021
Orbit: 831 x 841 km, 71.0° (Epoch: 09 May)

Event Time Altitude Azimuth Distance (km) Brightness Sun altitude
Rises 21:57:07 0° 342° (NNW) 3,404 6.6 -34.8°
Reaches altitude 10° 21:59:48 10° 352° (N) 2,466 5.8 -34.7°
Maximum altitude 22:04:56 34° 57° (ENE) 1,349 4.0 -34.4°
Enters shadow 22:05:12 34° 63° (ENE) 1,353 4.0 -34.4°
